Aérodrome :
LOGIN :

S'inscrire | Disclaimer

   EN    FR    IT 

 










Légende :    VFR   VFR Marginal   IFR   IFR Intensif   IFR Très Intensif
Visi : 
Plafond : 
>= 8 km
>= 3000ft
5 à 8 km
1000 à 3000 ft
1500m à 5 km
500 à 1000 ft
800 à 1500m
200 à 500 ft
< 800m
< 200 ft
Symboles :   Orages  Brouillard  Fortes neiges  Fortes précipitations  Vent > 20 kt
SIGMETs :   Divers  Orages  Givrage  Turbulence  Onde Orograph.  Cendres Volcan.






- Altitude de l'aérodrome : 1470 ft


LSMD - Dubendorf Military

DERNIER METAR :
  • 260550Z 15001KT 9999 -SHRA FEW052 BKN059 07/06 Q1024 RMK BLU

METARs EXPIRÉS :
  • 260520Z 17002KT 9999 -RA BKN057 BKN067 07/06 Q1024 RMK BLU
  • 260450Z VRB02KT 9999 -SHRA FEW042 BKN054 OVC067 07/06 Q1024 RMK BLU
  • 260420Z AUTO VRB02KT 9999NDV -SHRA FEW033 BKN038 OVC044 07/06 Q1023 RMK
  • 260350Z AUTO 00000KT 9999NDV BKN034 OVC039 07/05 Q1024 RMK
  • 260320Z AUTO 00000KT 9999NDV BKN037 BKN046 BKN071 06/05 Q1023 RMK

Prévision TAF périmée.



MET'MAP, la Météo Aéronautique d'un coup d'oeil ! - Copyright ORBIFLY Décembre 2007 - Disclaimer

ORBIFLY MET'MAP TEAM :

Programmation & Développement : Alexandra Zaïnal
Sur une idée originale de : Baudouin d'Aumeries
Assistance à la programmation : Marc-Olivier Méhu
Soutien technique & logistique : Manuel Goepfert

Contact : metmap@orbifly.com




SOURCES & CREDITS :

   NOAA